Location: Piedmont
(45.8748°N, 74.1254°W)
Time: 14:56:03
(UTC+00:00)

N. Korean satellite - Pass Details

Date: 04 December 2021
Orbit: 446 x 491 km, 97.3° (Epoch: 18 January)

Event Time Altitude Azimuth Distance (km) Brightness Sun altitude
Rises 09:27:19 0° 26° (NNE) 2,466 10.4 -29.4°
Reaches altitude 10° 09:29:45 10° 44° (NE) 1,584 9.6 -29.0°
Maximum altitude 09:32:20 20° 94° (E) 1,096 9.1 -28.5°
Drops below altitude 10° 09:34:53 10° 144° (SE) 1,570 9.6 -28.1°
Sets 09:37:13 0° 161° (SSE) 2,411 10.4 -27.7°
